カタログに戻る

STARLINK-37491

運用中通信VLEO
NORAD 69166·PAYLOAD·🇺🇸 United States

打ち上げ May 21, 2026 から Cape Canaveral Space Force Station

Loading…

次のパス (今後24時間)

TLE

最新Source: CelesTrak SupGP

元期: Sep 15, 2026, 02:49 UTC

1 69166C 26111U   26258.11784722 -.00011704  00000+0 -34583-3 0  2582
2 69166  53.1572  90.8122 0001227  85.5440 266.9376 15.34394206    10

AllMySatでSTARLINK-37491をリアルタイム追跡

Download on the App Store